Morris, MN

10:55 AM CDT on August 19, 2017 (GMT -0500)
Morris Municipal

Weather History for KMOX - October, 2012

Change the Weather History Date:

Saturday, October 6, 2012

  Actual Average Record
Temperature  
Mean Temperature 34 °F -  
Max Temperature 44 °F 61 °F 87 °F (2007)
Min Temperature 24 °F 38 °F 21 °F (2001)
Degree Days  
Heating Degree Days 31    
Moisture  
Dew Point 25 °F    
Average Humidity 68    
Maximum Humidity 87    
Minimum Humidity 39    
Precipitation  
Precipitation 0.00 in - - ()
Sea Level Pressure  
Sea Level Pressure 30.28 in    
Wind  
Wind Speed 13 mph (NW)    
Max Wind Speed 21 mph    
Max Gust Speed 23 mph    
Visibility 10 miles    
Events      
Averages and records for this station are not official NWS values.
T = Trace of Precipitation, MM = Missing Value Source: NWS Daily Summary

Daily Weather History Graph

Daily Weather History Graph

Search for Another Location

Airport or City:

Trip Planner

Search our weather history database for the weather conditions in past years. The results will help you decide how hot, cold, wet, or windy it might be!

Date:

Astronomy

Oct. 06, 2012 Rise Set
Actual Time 7:29 AM CDT 6:53 PM CDT
Civil Twilight 6:59 AM CDT 7:23 PM CDT
Nautical Twilight 6:25 AM CDT 7:57 PM CDT
Astronomical Twilight 5:50 AM CDT 8:32 PM CDT
Moon 10:57 PM CDT (10/6) 1:38 PM CDT (10/6)
Length of Visible Light 12h 23m
Length of Day
11h 24m
Waning Gibbous, 65% of the Moon is Illuminated
Oct 6
Waning Gibbous
Oct 8
Last Quarter
Oct 15
New
Oct 21
First Quarter
Oct 29
Full

Hourly Weather History & Observations

Time (CDT) Temp. Windchill Dew Point Humidity Pressure Visibility Wind Dir Wind Speed Gust Speed Precip Events Conditions
12:10 AM 35.6 °F 24.5 °F 28.4 °F 75% 30.23 in 10.0 mi NW 20.7 mph - N/A   Overcast
12:30 AM 35.6 °F 25.5 °F 28.4 °F 75% 30.23 in 10.0 mi NNW 17.3 mph 23.0 mph N/A   Overcast
12:50 AM 35.6 °F 26.2 °F 28.4 °F 75% 30.23 in 10.0 mi NW 15.0 mph 21.9 mph N/A   Overcast
1:10 AM 35.6 °F 26.2 °F 28.4 °F 75% 30.23 in 10.0 mi NW 15.0 mph - N/A   Overcast
1:30 AM 35.6 °F 27.1 °F 30.2 °F 81% 30.23 in 10.0 mi NNW 12.7 mph 20.7 mph N/A   Overcast
1:50 AM 33.8 °F 24.8 °F 30.2 °F 87% 30.23 in 7.0 mi NNW 12.7 mph 18.4 mph N/A   Overcast
2:10 AM 33.8 °F 24.3 °F 30.2 °F 87% 30.24 in 10.0 mi NNW 13.8 mph - N/A   Overcast
2:30 AM 33.8 °F 23.5 °F 30.2 °F 87% 30.24 in 7.0 mi NNW 16.1 mph - N/A   Overcast
2:50 AM 33.8 °F 23.5 °F 30.2 °F 87% 30.24 in 10.0 mi NNW 16.1 mph - N/A   Overcast
3:10 AM 33.8 °F 23.5 °F 30.2 °F 87% 30.24 in 10.0 mi NW 16.1 mph 21.9 mph N/A   Overcast
3:30 AM 33.8 °F 23.9 °F 30.2 °F 87% 30.24 in 10.0 mi NNW 15.0 mph - N/A   Overcast
3:50 AM 33.8 °F 23.2 °F 30.2 °F 87% 30.24 in 10.0 mi NW 17.3 mph - N/A   Overcast
4:10 AM 33.8 °F 22.8 °F 30.2 °F 87% 30.25 in 10.0 mi NNW 18.4 mph - N/A   Overcast
4:30 AM 33.8 °F 23.5 °F 30.2 °F 87% 30.25 in 10.0 mi NW 16.1 mph - N/A   Overcast
4:50 AM 33.8 °F 24.3 °F 30.2 °F 87% 30.25 in 10.0 mi NW 13.8 mph - N/A   Overcast
5:10 AM 33.8 °F 23.9 °F 30.2 °F 87% 30.25 in 10.0 mi NW 15.0 mph 19.6 mph N/A   Overcast
5:30 AM 33.8 °F 25.3 °F 28.4 °F 81% 30.26 in 10.0 mi NNW 11.5 mph 19.6 mph N/A   Overcast
5:50 AM 33.8 °F 23.9 °F 30.2 °F 87% 30.26 in 10.0 mi NW 15.0 mph - N/A   Overcast
6:10 AM 33.8 °F 23.5 °F 28.4 °F 81% 30.27 in 10.0 mi NNW 16.1 mph 19.6 mph N/A   Overcast
6:30 AM 33.8 °F 23.9 °F 28.4 °F 81% 30.28 in 10.0 mi NNW 15.0 mph - N/A   Overcast
6:50 AM 33.8 °F 24.3 °F 28.4 °F 81% 30.28 in 10.0 mi NNW 13.8 mph - N/A   Overcast
7:10 AM 33.8 °F 23.9 °F 28.4 °F 81% 30.29 in 10.0 mi NW 15.0 mph 20.7 mph N/A   Overcast
7:30 AM 33.8 °F 23.2 °F 26.6 °F 75% 30.29 in 10.0 mi NW 17.3 mph - N/A   Overcast
7:50 AM 33.8 °F 24.3 °F 26.6 °F 75% 30.30 in 10.0 mi NW 13.8 mph - N/A   Overcast
8:30 AM 33.8 °F 24.8 °F 28.4 °F 81% 30.31 in 10.0 mi NW 12.7 mph - N/A   Overcast
8:50 AM 33.8 °F 24.8 °F 26.6 °F 75% 30.32 in 10.0 mi NNW 12.7 mph - N/A   Overcast
9:10 AM 33.8 °F 24.3 °F 28.4 °F 81% 30.33 in 10.0 mi NW 13.8 mph - N/A   Overcast
9:30 AM 35.6 °F 25.2 °F 28.4 °F 75% 30.33 in 10.0 mi NW 18.4 mph - N/A   Overcast
9:50 AM 35.6 °F 25.9 °F 26.6 °F 70% 30.33 in 10.0 mi NW 16.1 mph - N/A   Mostly Cloudy
10:10 AM 37.4 °F 28.2 °F 26.6 °F 65% 30.34 in 10.0 mi NW 16.1 mph - N/A   Mostly Cloudy
10:30 AM 37.4 °F 28.2 °F 26.6 °F 65% 30.34 in 10.0 mi NW 16.1 mph 21.9 mph N/A   Mostly Cloudy
10:50 AM 37.4 °F 28.2 °F 26.6 °F 65% 30.34 in 10.0 mi NW 16.1 mph 19.6 mph N/A   Overcast
11:10 AM 37.4 °F 29.3 °F 26.6 °F 65% 30.34 in 10.0 mi NNW 12.7 mph 18.4 mph N/A   Overcast
11:30 AM 37.4 °F 28.9 °F 26.6 °F 65% 30.34 in 10.0 mi NNW 13.8 mph 18.4 mph N/A   Overcast
11:50 AM 37.4 °F 30.3 °F 24.8 °F 60% 30.34 in 10.0 mi NNW 10.4 mph 18.4 mph N/A   Overcast
12:10 PM 37.4 °F 29.3 °F 26.6 °F 65% 30.34 in 10.0 mi NNW 12.7 mph 16.1 mph N/A   Overcast
12:30 PM 37.4 °F 30.3 °F 26.6 °F 65% 30.34 in 10.0 mi NNW 10.4 mph - N/A   Overcast
12:50 PM 39.2 °F 31.6 °F 24.8 °F 56% 30.34 in 10.0 mi NNW 12.7 mph - N/A   Overcast
1:10 PM 41.0 °F 34.7 °F 24.8 °F 53% 30.33 in 10.0 mi North 10.4 mph - N/A   Overcast
1:30 PM 39.2 °F 30.8 °F 26.6 °F 61% 30.33 in 10.0 mi NW 15.0 mph 18.4 mph N/A   Overcast
1:50 PM 41.0 °F 34.3 °F 24.8 °F 53% 30.32 in 10.0 mi NNW 11.5 mph - N/A   Overcast
2:10 PM 39.2 °F 32.5 °F 24.8 °F 56% 30.31 in 10.0 mi NW 10.4 mph 16.1 mph N/A   Overcast
2:30 PM 41.0 °F 35.2 °F 24.8 °F 53% 30.30 in 10.0 mi NNW 9.2 mph - N/A   Mostly Cloudy
2:50 PM 41.0 °F 33.9 °F 23.0 °F 49% 30.30 in 10.0 mi NNW 12.7 mph - N/A   Overcast
3:10 PM 42.8 °F 36.2 °F 24.8 °F 49% 30.29 in 10.0 mi NNW 12.7 mph 16.1 mph N/A   Overcast
3:30 PM 44.6 °F 40.7 °F 23.0 °F 43% 30.28 in 10.0 mi NW 6.9 mph - N/A   Mostly Cloudy
3:50 PM 44.6 °F 38.8 °F 23.0 °F 43% 30.28 in 10.0 mi NNW 11.5 mph 18.4 mph N/A   Mostly Cloudy
4:10 PM 42.8 °F 38.0 °F 23.0 °F 46% 30.27 in 10.0 mi North 8.1 mph 17.3 mph N/A   Mostly Cloudy
4:30 PM 42.8 °F 37.0 °F 23.0 °F 46% 30.27 in 10.0 mi North 10.4 mph - N/A   Scattered Clouds
4:50 PM 44.6 °F 38.8 °F 23.0 °F 43% 30.26 in 10.0 mi North 11.5 mph - N/A   Scattered Clouds
5:10 PM 44.6 °F 39.2 °F 23.0 °F 43% 30.26 in 10.0 mi NNW 10.4 mph - N/A   Scattered Clouds
5:30 PM 44.6 °F 40.2 °F 21.2 °F 39% 30.26 in 10.0 mi North 8.1 mph - N/A   Clear
5:50 PM 42.8 °F 37.0 °F 21.2 °F 42% 30.26 in 10.0 mi North 10.4 mph - N/A   Clear
6:10 PM 42.8 °F 37.5 °F 21.2 °F 42% 30.26 in 10.0 mi NNW 9.2 mph - N/A   Clear
6:30 PM 41.0 °F 36.4 °F 21.2 °F 45% 30.26 in 10.0 mi NNW 6.9 mph - N/A   Clear
6:50 PM 39.2 °F 35.0 °F 21.2 °F 49% 30.26 in 10.0 mi NNW 5.8 mph - N/A   Clear
7:10 PM 35.6 °F 31.7 °F 21.2 °F 56% 30.26 in 10.0 mi NNW 4.6 mph - N/A   Clear
7:30 PM 35.6 °F - 21.2 °F 56% 30.26 in 10.0 mi Calm Calm - N/A   Clear
7:50 PM 35.6 °F 32.8 °F 21.2 °F 56% 30.26 in 10.0 mi NW 3.5 mph - N/A   Clear
8:10 PM 35.6 °F - 23.0 °F 60% 30.26 in 10.0 mi Calm Calm - N/A   Clear
8:30 PM 32.0 °F - 21.2 °F 64% 30.26 in 10.0 mi Calm Calm - N/A   Clear
8:50 PM 30.2 °F 25.4 °F 19.4 °F 64% 30.26 in 10.0 mi WSW 4.6 mph - N/A   Clear
9:10 PM 30.2 °F 25.4 °F 21.2 °F 69% 30.25 in 10.0 mi WSW 4.6 mph - N/A   Clear
9:30 PM 28.4 °F 23.3 °F 19.4 °F 69% 30.25 in 10.0 mi SW 4.6 mph - N/A   Clear
9:50 PM 26.6 °F 22.6 °F 19.4 °F 74% 30.25 in 10.0 mi SSW 3.5 mph - N/A   Clear
10:10 PM 26.6 °F 22.6 °F 21.2 °F 80% 30.25 in 10.0 mi SSW 3.5 mph - N/A   Clear
10:30 PM 26.6 °F 22.6 °F 19.4 °F 74% 30.24 in 10.0 mi SSW 3.5 mph - N/A   Clear
10:50 PM 26.6 °F 21.2 °F 17.6 °F 69% 30.24 in 10.0 mi SSW 4.6 mph - N/A   Clear
11:10 PM 24.8 °F 17.9 °F 17.6 °F 74% 30.23 in 10.0 mi SSW 5.8 mph - N/A   Clear
11:30 PM 24.8 °F 19.1 °F 17.6 °F 74% 30.23 in 10.0 mi SSW 4.6 mph - N/A   Clear
11:50 PM 26.6 °F 20.0 °F 19.4 °F 74% 30.22 in 10.0 mi SSW 5.8 mph - N/A   Clear